EZY9003 EGCC-EGAA

Flight info

Callsign EZY9003
Flight time 0h 31m
Altitude 24000
Route ASMIM L975 WAL M146 IPSET P6 BELZU
Aircraft A320/M-SDE3FGHIRWY/LB1

Departure

Time 2026-05-05 08:44
Airport Manchester Airport (EGCC)

Arrival

Time 2026-05-05 09:15
Airport Belfast International Airport (EGAA)
Time Latitude Longitude Altitude Speed Heading
2026-05-05 08:14 53.36988 -2.28948 255 ft 0 kts 315°
2026-05-05 08:21 53.36976 -2.28929 255 ft 4 kts 315°
2026-05-05 08:21 53.36961 -2.28904 255 ft 4 kts 295°
2026-05-05 08:22 53.36964 -2.28872 255 ft 4 kts 227°
2026-05-05 08:22 53.36980 -2.28844 255 ft 2 kts 225°
2026-05-05 08:22 53.36981 -2.28842 255 ft 0 kts 225°
2026-05-05 08:25 53.36979 -2.28846 255 ft 1 kts 225°
2026-05-05 08:25 53.36964 -2.28870 255 ft 7 kts 225°
2026-05-05 08:25 53.36926 -2.28935 255 ft 8 kts 225°
2026-05-05 08:25 53.36886 -2.29002 255 ft 8 kts 225°
2026-05-05 08:26 53.36829 -2.29074 255 ft 15 kts 206°
2026-05-05 08:26 53.36741 -2.29111 255 ft 10 kts 164°
2026-05-05 08:26 53.36691 -2.29035 255 ft 10 kts 135°
2026-05-05 08:26 53.36641 -2.28941 255 ft 11 kts 120°
2026-05-05 08:27 53.36597 -2.28828 255 ft 14 kts 123°
2026-05-05 08:27 53.36533 -2.28680 255 ft 16 kts 134°
2026-05-05 08:27 53.36455 -2.28548 255 ft 16 kts 135°
2026-05-05 08:27 53.36398 -2.28393 255 ft 16 kts 117°
2026-05-05 08:28 53.36327 -2.28255 255 ft 16 kts 134°
2026-05-05 08:28 53.36251 -2.28126 255 ft 16 kts 135°
2026-05-05 08:28 53.36174 -2.27999 255 ft 16 kts 138°
2026-05-05 08:28 53.36089 -2.27886 255 ft 16 kts 142°
2026-05-05 08:29 53.36004 -2.27775 255 ft 16 kts 142°
2026-05-05 08:29 53.35903 -2.27727 255 ft 15 kts 181°
2026-05-05 08:29 53.35798 -2.27704 252 ft 15 kts 146°
2026-05-05 08:30 53.35610 -2.27509 245 ft 13 kts 141°
2026-05-05 08:30 53.35581 -2.27469 245 ft 1 kts 141°
2026-05-05 08:30 53.35580 -2.27468 245 ft 0 kts 141°
2026-05-05 08:30 53.35554 -2.27433 246 ft 10 kts 141°
2026-05-05 08:31 53.35483 -2.27338 249 ft 14 kts 140°
2026-05-05 08:31 53.35405 -2.27232 246 ft 15 kts 141°
2026-05-05 08:31 53.35299 -2.27199 242 ft 18 kts 193°
2026-05-05 08:31 53.35167 -2.27244 231 ft 3 kts 192°
2026-05-05 08:32 53.35167 -2.27245 231 ft 0 kts 192°
2026-05-05 08:42 53.35156 -2.27248 231 ft 4 kts 192°
2026-05-05 08:43 53.35116 -2.27262 229 ft 8 kts 192°
2026-05-05 08:43 53.35049 -2.27286 226 ft 11 kts 195°
2026-05-05 08:43 53.34939 -2.27466 225 ft 56 kts 231°
2026-05-05 08:43 53.34488 -2.28398 227 ft 143 kts 230°
2026-05-05 08:44 53.33849 -2.29843 930 ft 154 kts 236°
2026-05-05 08:44 53.33185 -2.31287 1881 ft 164 kts 234°
2026-05-05 08:44 53.32447 -2.32889 2562 ft 188 kts 236°
2026-05-05 08:44 53.31726 -2.34904 3329 ft 211 kts 252°
2026-05-05 08:45 53.31549 -2.37428 4085 ft 232 kts 283°
2026-05-05 08:45 53.32136 -2.40035 4957 ft 252 kts 296°
2026-05-05 08:45 53.32882 -2.42743 6162 ft 260 kts 296°
2026-05-05 08:45 53.33657 -2.45519 7422 ft 265 kts 296°
2026-05-05 08:46 53.34441 -2.48336 8704 ft 269 kts 295°
2026-05-05 08:46 53.35239 -2.51210 9959 ft 275 kts 294°
2026-05-05 08:46 53.36068 -2.54211 10750 ft 296 kts 294°
2026-05-05 08:46 53.36966 -2.57483 11334 ft 322 kts 294°
2026-05-05 08:47 53.37923 -2.60978 12093 ft 336 kts 294°
2026-05-05 08:47 53.38909 -2.64586 13075 ft 344 kts 294°
2026-05-05 08:47 53.39913 -2.68264 14063 ft 351 kts 294°
2026-05-05 08:47 53.40933 -2.72009 15005 ft 355 kts 294°
2026-05-05 08:48 53.41966 -2.75811 15911 ft 362 kts 293°
2026-05-05 08:48 53.43018 -2.79679 16830 ft 367 kts 293°
2026-05-05 08:48 53.44082 -2.83595 17728 ft 372 kts 293°
2026-05-05 08:48 53.45146 -2.87533 18549 ft 377 kts 292°
2026-05-05 08:49 53.46232 -2.91576 19290 ft 382 kts 293°
2026-05-05 08:49 53.47349 -2.95665 19997 ft 388 kts 295°
2026-05-05 08:49 53.48632 -2.99684 20729 ft 393 kts 297°
2026-05-05 08:49 53.49986 -3.03720 21467 ft 398 kts 298°
2026-05-05 08:50 53.51379 -3.07767 22190 ft 403 kts 298°
2026-05-05 08:50 53.52319 -3.10473 22656 ft 406 kts 299°
2026-05-05 08:50 53.53747 -3.14597 23303 ft 411 kts 299°
2026-05-05 08:50 53.55183 -3.18784 23835 ft 416 kts 298°
2026-05-05 08:51 53.56618 -3.23013 24017 ft 416 kts 298°
2026-05-05 08:51 53.58072 -3.27323 24056 ft 428 kts 299°
2026-05-05 08:51 53.59842 -3.31269 24056 ft 422 kts 315°
2026-05-05 08:51 53.62075 -3.34453 24058 ft 421 kts 320°
2026-05-05 08:52 53.64352 -3.37537 24061 ft 420 kts 320°
2026-05-05 08:52 53.66552 -3.40852 24061 ft 431 kts 310°
2026-05-05 08:52 53.68201 -3.45079 24064 ft 435 kts 295°
2026-05-05 08:52 53.69501 -3.49702 24069 ft 436 kts 294°
2026-05-05 08:53 53.70780 -3.54333 24062 ft 435 kts 294°
2026-05-05 08:53 53.72048 -3.58987 24064 ft 435 kts 293°
2026-05-05 08:53 53.73304 -3.63629 24065 ft 435 kts 293°
2026-05-05 08:53 53.74561 -3.68284 24065 ft 435 kts 293°
2026-05-05 08:54 53.75819 -3.72928 24065 ft 435 kts 293°
2026-05-05 08:54 53.77079 -3.77584 24071 ft 435 kts 293°
2026-05-05 08:54 53.78335 -3.82235 24070 ft 435 kts 293°
2026-05-05 08:54 53.79589 -3.86885 24068 ft 435 kts 293°
2026-05-05 08:55 53.80842 -3.91538 24064 ft 435 kts 293°
2026-05-05 08:55 53.82246 -3.96076 24058 ft 436 kts 303°
2026-05-05 08:55 53.84097 -4.00139 24064 ft 437 kts 307°
2026-05-05 08:55 53.85967 -4.04117 24063 ft 437 kts 307°
2026-05-05 08:56 53.87859 -4.08137 24058 ft 437 kts 307°
2026-05-05 08:56 53.89758 -4.12174 24058 ft 437 kts 307°
2026-05-05 08:56 53.91649 -4.16205 24059 ft 437 kts 307°
2026-05-05 08:56 53.93537 -4.20244 24082 ft 436 kts 306°
2026-05-05 08:57 53.95416 -4.24271 24096 ft 435 kts 306°
2026-05-05 08:57 53.97294 -4.28299 24100 ft 434 kts 306°
2026-05-05 08:57 53.99164 -4.32314 24102 ft 433 kts 306°
2026-05-05 08:57 54.01032 -4.36330 24101 ft 432 kts 306°
2026-05-05 08:58 54.02896 -4.40342 24097 ft 432 kts 306°
2026-05-05 08:58 54.04752 -4.44345 24096 ft 432 kts 306°
2026-05-05 08:58 54.06609 -4.48359 24091 ft 431 kts 306°
2026-05-05 08:58 54.08456 -4.52369 23491 ft 428 kts 306°
2026-05-05 08:59 54.10283 -4.56346 22442 ft 425 kts 306°
2026-05-05 08:59 54.12096 -4.60294 21532 ft 420 kts 306°
2026-05-05 08:59 54.13882 -4.64189 20681 ft 415 kts 306°
2026-05-05 08:59 54.15650 -4.68042 19867 ft 410 kts 306°
2026-05-05 09:00 54.17392 -4.71842 19091 ft 404 kts 307°
2026-05-05 09:00 54.19117 -4.75612 18346 ft 400 kts 307°
2026-05-05 09:00 54.20822 -4.79353 17660 ft 398 kts 307°
2026-05-05 09:00 54.22510 -4.83064 16995 ft 394 kts 307°
2026-05-05 09:01 54.24185 -4.86751 16342 ft 390 kts 307°
2026-05-05 09:01 54.25842 -4.90395 15709 ft 386 kts 307°
2026-05-05 09:01 54.27481 -4.94004 15099 ft 382 kts 307°
2026-05-05 09:01 54.29102 -4.97584 14607 ft 380 kts 307°
2026-05-05 09:02 54.30720 -5.01156 14117 ft 379 kts 307°
2026-05-05 09:02 54.32329 -5.04708 13622 ft 376 kts 308°
2026-05-05 09:02 54.33903 -5.08183 13082 ft 371 kts 308°
2026-05-05 09:02 54.35480 -5.11679 12561 ft 370 kts 308°
2026-05-05 09:03 54.37169 -5.14979 12039 ft 368 kts 314°
2026-05-05 09:03 54.38936 -5.18114 11545 ft 363 kts 314°
2026-05-05 09:03 54.40682 -5.21212 11039 ft 361 kts 314°
2026-05-05 09:03 54.42416 -5.24300 10546 ft 357 kts 314°
2026-05-05 09:04 54.44107 -5.27331 10060 ft 345 kts 314°
2026-05-05 09:04 54.45723 -5.30255 9658 ft 330 kts 314°
2026-05-05 09:04 54.47271 -5.33067 9257 ft 318 kts 314°
2026-05-05 09:04 54.48767 -5.35781 8845 ft 307 kts 314°
2026-05-05 09:05 54.50207 -5.38414 8463 ft 298 kts 314°
2026-05-05 09:05 54.51607 -5.40991 8081 ft 291 kts 314°
2026-05-05 09:05 54.52977 -5.43510 7705 ft 285 kts 314°
2026-05-05 09:05 54.54311 -5.45974 7329 ft 278 kts 314°
2026-05-05 09:06 54.55612 -5.48397 6954 ft 272 kts 314°
2026-05-05 09:06 54.56859 -5.50731 6591 ft 266 kts 314°
2026-05-05 09:06 54.58096 -5.53051 6191 ft 261 kts 314°
2026-05-05 09:06 54.59313 -5.55338 5803 ft 257 kts 314°
2026-05-05 09:07 54.60517 -5.57600 5455 ft 254 kts 314°
2026-05-05 09:07 54.61706 -5.59836 5197 ft 253 kts 314°
2026-05-05 09:07 54.62892 -5.62055 4945 ft 249 kts 314°
2026-05-05 09:07 54.64073 -5.64230 4811 ft 248 kts 314°
2026-05-05 09:08 54.65211 -5.66336 4675 ft 232 kts 314°
2026-05-05 09:08 54.66277 -5.68317 4539 ft 218 kts 314°
2026-05-05 09:08 54.67282 -5.70193 4415 ft 208 kts 314°
2026-05-05 09:08 54.68257 -5.72019 4278 ft 206 kts 314°
2026-05-05 09:09 54.69222 -5.73840 4148 ft 204 kts 313°
2026-05-05 09:09 54.69910 -5.75964 4018 ft 207 kts 287°
2026-05-05 09:09 54.70117 -5.78446 3887 ft 209 kts 279°
2026-05-05 09:09 54.70246 -5.80954 3757 ft 210 kts 279°
2026-05-05 09:10 54.70365 -5.83444 3630 ft 211 kts 279°
2026-05-05 09:10 54.70484 -5.85968 3506 ft 210 kts 279°
2026-05-05 09:10 54.70597 -5.88487 3365 ft 206 kts 279°
2026-05-05 09:10 54.70700 -5.90861 3238 ft 190 kts 279°
2026-05-05 09:11 54.70778 -5.93092 3114 ft 183 kts 278°
2026-05-05 09:11 54.70848 -5.95276 2998 ft 181 kts 279°
2026-05-05 09:11 54.70923 -5.97444 2864 ft 177 kts 279°
2026-05-05 09:11 54.70987 -5.99491 2729 ft 166 kts 279°
2026-05-05 09:12 54.71026 -6.01455 2585 ft 164 kts 272°
2026-05-05 09:12 54.70626 -6.03347 2399 ft 170 kts 250°
2026-05-05 09:12 54.70134 -6.05185 2174 ft 167 kts 252°
2026-05-05 09:12 54.69656 -6.06984 1948 ft 160 kts 251°
2026-05-05 09:13 54.69204 -6.08676 1753 ft 150 kts 251°
2026-05-05 09:13 54.68779 -6.10267 1530 ft 143 kts 252°
2026-05-05 09:13 54.68370 -6.11797 1328 ft 137 kts 252°
2026-05-05 09:13 54.67981 -6.13271 1121 ft 132 kts 252°
2026-05-05 09:14 54.67596 -6.14713 955 ft 131 kts 248°
2026-05-05 09:14 54.67213 -6.16143 741 ft 131 kts 252°
2026-05-05 09:14 54.66824 -6.17533 588 ft 129 kts 252°
2026-05-05 09:14 54.66457 -6.18934 409 ft 128 kts 250°
2026-05-05 09:15 54.66090 -6.20314 281 ft 120 kts 250°
2026-05-05 09:15 54.65786 -6.21446 272 ft 81 kts 245°
2026-05-05 09:15 54.65595 -6.22152 272 ft 58 kts 245°
2026-05-05 09:15 54.65479 -6.22577 272 ft 15 kts 254°
2026-05-05 09:16 54.65536 -6.22722 277 ft 17 kts 343°
2026-05-05 09:16 54.65664 -6.22792 274 ft 21 kts 341°
2026-05-05 09:16 54.65740 -6.22728 272 ft 15 kts 76°
2026-05-05 09:16 54.65751 -6.22528 272 ft 17 kts 84°
2026-05-05 09:17 54.65766 -6.22300 276 ft 21 kts 82°
2026-05-05 09:17 54.65808 -6.22039 272 ft 24 kts 60°
2026-05-05 09:17 54.65876 -6.21797 272 ft 23 kts 66°
2026-05-05 09:17 54.65948 -6.21526 272 ft 25 kts 65°
2026-05-05 09:18 54.66012 -6.21286 272 ft 19 kts 64°
2026-05-05 09:18 54.66083 -6.21227 272 ft 13 kts 337°
2026-05-05 09:18 54.66168 -6.21296 272 ft 11 kts 335°
2026-05-05 09:18 54.66195 -6.21358 272 ft 7 kts 258°
2026-05-05 09:19 54.66187 -6.21391 272 ft 2 kts 243°
2026-05-05 09:19 54.66181 -6.21413 272 ft 1 kts 244°
2026-05-05 09:19 54.66180 -6.21413 272 ft 0 kts 244°